QPF
0.02 0.03 0.06 0.07 0.07 0.09 0.08 0.08 0.09 0.11 0.09 0.07 0.05 0.06 0.07 0.07 0.06 0.06 0.08 0.09 0.15 0.20 0.12 0.08 0.06 0.07 0.07 0.07 0.07 0.06 0.05 0.05 0.05 0.04 0.04 0.04 0.05 0.06 0.05 0.05 0.05 0.04 0.07
0.03 0.05 0.10 0.09 0.08 0.07 0.07 0.07 0.09 0.11 0.09 0.06 0.06 0.07 0.08 0.08 0.07 0.05 0.06 0.08 0.09 0.11 0.09 0.05 0.05 0.06 0.06 0.07 0.07 0.07 0.07 0.05 0.05 0.04 0.05 0.06 0.07 0.07 0.07 0.05 0.05 0.05 0.06
0.04 0.03 0.05 0.06 0.08 0.08 0.08 0.10 0.10 0.08 0.07 0.05 0.05 0.07 0.07 0.09 0.10 0.07 0.07 0.08 0.08 0.07 0.06 0.05 0.05 0.07 0.06 0.06 0.05 0.05 0.08 0.05 0.05 0.05 0.07 0.07 0.07 0.08 0.06 0.06 0.06 0.04 0.05
0.03 0.03 0.04 0.06 0.08 0.10 0.11 0.09 0.07 0.06 0.05 0.04 0.04 0.07 0.07 0.09 0.10 0.09 0.08 0.07 0.07 0.07 0.07 0.06 0.06 0.08 0.08 0.07 0.04 0.04 0.06 0.05 0.05 0.06 0.06 0.05 0.07 0.08 0.07 0.05 0.05 0.05 0.05
0.04 0.05 0.06 0.11 0.19 0.15 0.11 0.08 0.05 0.05 0.05 0.04 0.06 0.06 0.07 0.08 0.09 0.08 0.07 0.07 0.07 0.07 0.06 0.06 0.07 0.09 0.09 0.07 0.05 0.06 0.07 0.05 0.04 0.05 0.05 0.05 0.07 0.09 0.06 0.04 0.04 0.05 0.05
0.05 0.06 0.08 0.13 0.16 0.11 0.08 0.07 0.06 0.05 0.05 0.04 0.05 0.07 0.07 0.08 0.09 0.07 0.07 0.07 0.08 0.08 0.07 0.06 0.07 0.07 0.06 0.05 0.07 0.06 0.06 0.05 0.04 0.05 0.05 0.07 0.10 0.08 0.07 0.04 0.05 0.05 0.04
0.03 0.03 0.05 0.09 0.11 0.09 0.08 0.08 0.05 0.04 0.05 0.05 0.04 0.06 0.06 0.07 0.08 0.08 0.08 0.09 0.09 0.09 0.10 0.09 0.08 0.07 0.06 0.05 0.05 0.05 0.05 0.06 0.05 0.06 0.06 0.07 0.09 0.08 0.09 0.07 0.06 0.07 0.06
0.03 0.02 0.02 0.04 0.06 0.05 0.04 0.04 0.04 0.05 0.05 0.06 0.06 0.05 0.05 0.06 0.07 0.09 0.08 0.08 0.09 0.10 0.11 0.08 0.05 0.05 0.05 0.05 0.04 0.05 0.06 0.07 0.04 0.04 0.05 0.07 0.09 0.10 0.08 0.06 0.07 0.08 0.09
0.01 0.01 0.01 0.01 0.01 0.03 0.04 0.02 0.02 0.03 0.04 0.06 0.07 0.07 0.06 0.06 0.07 0.08 0.07 0.07 0.08 0.08 0.08 0.06 0.05 0.05 0.05 0.04 0.05 0.05 0.06 0.08 0.06 0.03 0.04 0.07 0.08 0.09 0.06 0.05 0.05 0.07 0.09
0.01 0.01 0.01 0.01 0.01 0.02 0.02 0.02 0.02 0.02 0.03 0.04 0.05 0.07 0.07 0.05 0.06 0.07 0.06 0.07 0.07 0.08 0.08 0.07 0.06 0.06 0.07 0.06 0.07 0.07 0.09 0.10 0.07 0.05 0.06 0.06 0.07 0.09 0.07 0.05 0.04 0.05 0.08
0.02 0.01 0.01 0.01 0.01 0.01 0.01 0.01 0.02 0.02 0.03 0.03 0.04 0.06 0.06 0.04 0.03 0.05 0.05 0.08 0.08 0.08 0.10 0.10 0.08 0.07 0.07 0.08 0.10 0.09 0.10 0.12 0.08 0.07 0.08 0.08 0.09 0.09 0.08 0.05 0.04 0.05 0.07
0.01 0.01 0.01 0.01 0.00 0.01 0.01 0.01 0.01 0.02 0.03 0.03 0.03 0.05 0.04 0.03 0.03 0.03 0.05 0.06 0.07 0.07 0.10 0.11 0.09 0.06 0.04 0.06 0.08 0.07 0.07 0.11 0.09 0.07 0.10 0.11 0.13 0.12 0.10 0.09 0.07 0.07 0.07
0.01 0.01 0.01 0.01 0.01 0.01 0.00 0.00 0.01 0.02 0.02 0.02 0.04 0.06 0.05 0.04 0.05 0.04 0.04 0.03 0.05 0.04 0.05 0.09 0.10 0.05 0.03 0.04 0.07 0.06 0.06 0.09 0.12 0.10 0.10 0.10 0.12 0.13 0.12 0.10 0.09 0.07 0.05
0.01 0.02 0.02 0.01 0.01 0.01 0.01 0.00 0.01 0.01 0.01 0.03 0.05 0.07 0.06 0.04 0.04 0.05 0.03 0.02 0.02 0.02 0.02 0.03 0.05 0.05 0.03 0.03 0.02 0.03 0.04 0.06 0.10 0.11 0.10 0.11 0.11 0.10 0.11 0.10 0.08 0.06 0.05
0.01 0.01 0.01 0.01 0.01 0.01 0.01 0.01 0.01 0.01 0.02 0.02 0.04 0.06 0.04 0.02 0.02 0.02 0.02 0.02 0.01 0.01 0.01 0.02 0.02 0.04 0.03 0.03 0.02 0.02 0.03 0.04 0.06 0.09 0.09 0.09 0.09 0.09 0.10 0.10 0.07 0.06 0.07
0.01 0.01 0.01 0.01 0.01 0.02 0.02 0.01 0.01 0.01 0.01 0.02 0.01 0.01 0.02 0.01 0.01 0.01 0.01 0.01 0.01 0.01 0.01 0.02 0.02 0.02 0.03 0.03 0.03 0.03 0.03 0.03 0.04 0.05 0.06 0.05 0.05 0.07 0.09 0.10 0.08 0.08 0.10
0.01 0.00 0.00 0.01 0.01 0.01 0.02 0.01 0.01 0.01 0.00 0.01 0.01 0.00 0.01 0.01 0.01 0.01 0.00 0.01 0.00 0.01 0.02 0.02 0.03 0.02 0.04 0.04 0.04 0.03 0.03 0.02 0.03 0.03 0.03 0.03 0.03 0.05 0.08 0.08 0.08 0.09 0.09
0.01 0.01 0.01 0.01 0.01 0.01 0.02 0.02 0.01 0.01 0.01 0.01 0.00 0.00 0.00 0.01 0.01 0.01 0.00 0.00 0.00 0.01 0.03 0.04 0.04 0.03 0.04 0.04 0.03 0.02 0.02 0.02 0.02 0.02 0.02 0.02 0.03 0.03 0.05 0.07 0.08 0.09 0.10
0.02 0.01 0.01 0.01 0.01 0.01 0.02 0.02 0.01 0.01 0.01 0.01 0.01 0.01 0.01 0.01 0.01 0.01 0.01 0.01 0.01 0.01 0.02 0.04 0.05 0.05 0.05 0.03 0.02 0.02 0.02 0.01 0.02 0.02 0.02 0.02 0.02 0.02 0.04 0.07 0.08 0.11 0.11
0.02 0.01 0.01 0.01 0.01 0.01 0.01 0.01 0.01 0.01 0.02 0.02 0.01 0.01 0.00 0.00 0.01 0.01 0.02 0.03 0.02 0.02 0.02 0.03 0.04 0.04 0.05 0.04 0.02 0.02 0.02 0.01 0.01 0.01 0.01 0.01 0.02 0.05 0.09 0.09 0.09 0.09 0.08
0.02 0.01 0.01 0.02 0.02 0.01 0.01 0.01 0.01 0.02 0.03 0.03 0.02 0.01 0.01 0.00 0.00 0.01 0.02 0.03 0.04 0.03 0.02 0.02 0.03 0.02 0.03 0.04 0.03 0.02 0.02 0.01 0.01 0.03 0.02 0.02 0.05 0.06 0.07 0.06 0.06 0.06 0.05
0.03 0.02 0.01 0.01 0.01 0.01 0.01 0.01 0.01 0.02 0.04 0.02 0.01 0.01 0.01 0.01 0.01 0.01 0.01 0.02 0.03 0.03 0.03 0.02 0.02 0.02 0.01 0.01 0.01 0.02 0.02 0.02 0.04 0.05 0.04 0.03 0.03 0.04 0.04 0.03 0.03 0.03 0.02
0.02 0.01 0.01 0.01 0.01 0.01 0.01 0.00 0.01 0.02 0.02 0.02 0.02 0.01 0.01 0.01 0.01 0.01 0.01 0.01 0.01 0.01 0.02 0.02 0.02 0.02 0.02 0.01 0.01 0.02 0.02 0.03 0.05 0.05 0.03 0.02 0.02 0.02 0.02 0.02 0.02 0.02 0.01
0.01 0.01 0.01 0.01 0.02 0.01 0.00 0.00 0.01 0.01 0.01 0.01 0.01 0.01 0.01 0.00 0.01 0.02 0.01 0.01 0.00 0.00 0.01 0.01 0.01 0.02 0.02 0.02 0.02 0.01 0.01 0.02 0.03 0.04 0.04 0.03 0.02 0.02 0.02 0.01 0.01 0.01 0.01
0.01 0.01 0.00 0.01 0.01 0.01 0.01 0.00 0.01 0.01 0.00 0.00 0.00 0.01 0.01 0.01 0.01 0.01 0.01 0.00 0.01 0.01 0.01 0.01 0.01 0.01 0.02 0.02 0.02 0.02 0.02 0.02 0.03 0.04 0.05 0.04 0.03 0.04 0.03 0.02 0.01 0.01 0.01
0.01 0.01 0.01 0.01 0.02 0.01 0.01 0.00 0.01 0.01 0.00 0.00 0.01 0.01 0.01 0.01 0.01 0.01 0.01 0.01 0.01 0.01 0.01 0.01 0.01 0.01 0.01 0.02 0.02 0.02 0.02 0.02 0.03 0.04 0.04 0.04 0.06 0.05 0.04 0.03 0.02 0.01 0.02
MSLP
1016.35 1015.98 1015.61 1015.28 1015.00 1014.78 1014.60 1014.47 1014.37 1014.32 1014.31 1014.37 1014.49 1014.69 1014.92 1015.17 1015.39 1015.55 1015.62 1015.59 1015.49 1015.34 1015.19 1015.08 1015.02 1015.03 1015.09 1015.16 1015.21 1015.22 1015.16 1015.05 1014.92 1014.78 1014.69 1014.64 1014.66 1014.73 1014.83 1014.92 1015.00 1015.04 1015.04
1016.47 1016.11 1015.77 1015.49 1015.26 1015.08 1014.93 1014.81 1014.71 1014.63 1014.60 1014.62 1014.72 1014.89 1015.12 1015.37 1015.59 1015.75 1015.83 1015.81 1015.72 1015.59 1015.45 1015.36 1015.32 1015.34 1015.40 1015.46 1015.50 1015.48 1015.41 1015.30 1015.17 1015.05 1014.98 1014.96 1015.01 1015.09 1015.19 1015.28 1015.33 1015.33 1015.30
1016.54 1016.20 1015.90 1015.66 1015.49 1015.36 1015.26 1015.16 1015.07 1014.99 1014.93 1014.93 1014.99 1015.13 1015.32 1015.53 1015.73 1015.88 1015.95 1015.93 1015.86 1015.75 1015.66 1015.59 1015.58 1015.62 1015.69 1015.75 1015.77 1015.74 1015.66 1015.55 1015.43 1015.33 1015.29 1015.31 1015.37 1015.47 1015.57 1015.65 1015.67 1015.64 1015.57
1016.54 1016.22 1015.96 1015.78 1015.67 1015.61 1015.56 1015.51 1015.44 1015.37 1015.30 1015.27 1015.30 1015.39 1015.54 1015.70 1015.86 1015.98 1016.03 1016.02 1015.97 1015.89 1015.84 1015.81 1015.84 1015.91 1015.98 1016.04 1016.06 1016.02 1015.93 1015.82 1015.72 1015.65 1015.63 1015.68 1015.77 1015.88 1015.97 1016.02 1016.02 1015.96 1015.86
1016.50 1016.20 1015.97 1015.85 1015.80 1015.81 1015.83 1015.83 1015.80 1015.74 1015.68 1015.63 1015.63 1015.68 1015.78 1015.90 1016.01 1016.10 1016.14 1016.13 1016.10 1016.06 1016.05 1016.07 1016.13 1016.21 1016.30 1016.36 1016.37 1016.32 1016.24 1016.13 1016.04 1016.00 1016.02 1016.09 1016.19 1016.31 1016.39 1016.43 1016.40 1016.32 1016.21
1016.44 1016.15 1015.96 1015.89 1015.90 1015.97 1016.04 1016.09 1016.11 1016.08 1016.02 1015.97 1015.96 1015.98 1016.04 1016.13 1016.21 1016.28 1016.31 1016.31 1016.30 1016.30 1016.32 1016.38 1016.47 1016.57 1016.66 1016.71 1016.71 1016.66 1016.58 1016.49 1016.42 1016.40 1016.45 1016.54 1016.66 1016.77 1016.85 1016.87 1016.83 1016.74 1016.62
1016.43 1016.15 1015.98 1015.94 1015.99 1016.10 1016.22 1016.31 1016.35 1016.35 1016.31 1016.27 1016.25 1016.26 1016.31 1016.38 1016.45 1016.52 1016.56 1016.58 1016.60 1016.62 1016.68 1016.76 1016.87 1016.98 1017.06 1017.11 1017.10 1017.05 1016.97 1016.89 1016.85 1016.86 1016.93 1017.04 1017.16 1017.28 1017.35 1017.36 1017.31 1017.21 1017.10
1016.50 1016.22 1016.07 1016.05 1016.12 1016.25 1016.39 1016.50 1016.55 1016.55 1016.52 1016.49 1016.48 1016.50 1016.56 1016.65 1016.73 1016.82 1016.88 1016.93 1016.98 1017.03 1017.11 1017.21 1017.32 1017.42 1017.50 1017.53 1017.52 1017.46 1017.40 1017.35 1017.33 1017.37 1017.46 1017.58 1017.72 1017.82 1017.88 1017.88 1017.83 1017.74 1017.63
1016.67 1016.40 1016.25 1016.24 1016.32 1016.45 1016.57 1016.66 1016.71 1016.70 1016.68 1016.65 1016.66 1016.70 1016.79 1016.90 1017.03 1017.15 1017.25 1017.33 1017.41 1017.49 1017.58 1017.68 1017.79 1017.88 1017.94 1017.96 1017.95 1017.91 1017.86 1017.84 1017.86 1017.93 1018.04 1018.18 1018.31 1018.41 1018.46 1018.45 1018.39 1018.30 1018.21
1016.93 1016.67 1016.53 1016.52 1016.59 1016.69 1016.79 1016.85 1016.86 1016.84 1016.80 1016.78 1016.80 1016.87 1016.99 1017.15 1017.32 1017.48 1017.62 1017.75 1017.85 1017.95 1018.05 1018.15 1018.24 1018.32 1018.37 1018.39 1018.38 1018.37 1018.35 1018.37 1018.42 1018.52 1018.65 1018.80 1018.93 1019.02 1019.06 1019.03 1018.97 1018.88 1018.80
1017.24 1017.00 1016.88 1016.87 1016.93 1017.00 1017.06 1017.08 1017.05 1016.99 1016.93 1016.91 1016.94 1017.03 1017.19 1017.38 1017.59 1017.80 1017.98 1018.14 1018.27 1018.39 1018.49 1018.58 1018.67 1018.74 1018.78 1018.81 1018.82 1018.83 1018.86 1018.92 1019.01 1019.14 1019.30 1019.45 1019.57 1019.65 1019.67 1019.63 1019.55 1019.46 1019.38
1017.56 1017.36 1017.27 1017.27 1017.31 1017.36 1017.39 1017.36 1017.29 1017.20 1017.12 1017.09 1017.12 1017.22 1017.40 1017.62 1017.86 1018.10 1018.31 1018.50 1018.65 1018.78 1018.89 1018.98 1019.07 1019.13 1019.19 1019.23 1019.27 1019.32 1019.39 1019.49 1019.63 1019.79 1019.96 1020.11 1020.22 1020.28 1020.28 1020.22 1020.14 1020.04 1019.96
1017.86 1017.70 1017.65 1017.67 1017.72 1017.76 1017.76 1017.70 1017.61 1017.50 1017.40 1017.35 1017.38 1017.48 1017.66 1017.89 1018.14 1018.39 1018.62 1018.83 1019.00 1019.14 1019.26 1019.37 1019.46 1019.54 1019.61 1019.68 1019.76 1019.85 1019.96 1020.10 1020.27 1020.45 1020.63 1020.77 1020.87 1020.91 1020.89 1020.81 1020.71 1020.61 1020.53
1018.14 1018.03 1018.01 1018.05 1018.11 1018.16 1018.16 1018.11 1018.01 1017.89 1017.79 1017.73 1017.75 1017.84 1017.99 1018.21 1018.45 1018.70 1018.94 1019.15 1019.34 1019.51 1019.65 1019.78 1019.89 1020.00 1020.09 1020.19 1020.30 1020.43 1020.57 1020.74 1020.93 1021.12 1021.29 1021.43 1021.51 1021.52 1021.48 1021.39 1021.28 1021.17 1021.09
1018.43 1018.35 1018.36 1018.42 1018.50 1018.56 1018.58 1018.55 1018.48 1018.38 1018.29 1018.23 1018.23 1018.29 1018.42 1018.60 1018.81 1019.04 1019.28 1019.50 1019.71 1019.91 1020.08 1020.25 1020.39 1020.53 1020.66 1020.79 1020.92 1021.07 1021.23 1021.41 1021.61 1021.79 1021.95 1022.06 1022.12 1022.12 1022.06 1021.96 1021.84 1021.72 1021.64
1018.76 1018.69 1018.70 1018.78 1018.88 1018.97 1019.02 1019.03 1019.00 1018.94 1018.87 1018.82 1018.81 1018.84 1018.92 1019.05 1019.23 1019.43 1019.66 1019.89 1020.13 1020.37 1020.59 1020.80 1020.99 1021.16 1021.32 1021.46 1021.61 1021.76 1021.93 1022.10 1022.27 1022.44 1022.57 1022.67 1022.70 1022.68 1022.61 1022.50 1022.38 1022.27 1022.18
1019.16 1019.08 1019.09 1019.15 1019.26 1019.37 1019.47 1019.53 1019.55 1019.54 1019.51 1019.47 1019.45 1019.44 1019.48 1019.56 1019.68 1019.86 1020.07 1020.32 1020.59 1020.88 1021.15 1021.41 1021.65 1021.86 1022.04 1022.19 1022.33 1022.47 1022.61 1022.75 1022.90 1023.03 1023.14 1023.21 1023.22 1023.19 1023.12 1023.02 1022.91 1022.80 1022.72
1019.64 1019.54 1019.52 1019.56 1019.66 1019.78 1019.91 1020.03 1020.11 1020.15 1020.16 1020.13 1020.09 1020.06 1020.04 1020.07 1020.15 1020.29 1020.50 1020.77 1021.07 1021.41 1021.74 1022.05 1022.33 1022.57 1022.76 1022.90 1023.03 1023.13 1023.23 1023.34 1023.44 1023.53 1023.61 1023.66 1023.67 1023.64 1023.57 1023.49 1023.40 1023.31 1023.24
1020.19 1020.06 1020.00 1020.01 1020.08 1020.21 1020.36 1020.51 1020.64 1020.73 1020.77 1020.76 1020.71 1020.64 1020.58 1020.55 1020.59 1020.70 1020.90 1021.18 1021.53 1021.90 1022.29 1022.65 1022.96 1023.21 1023.40 1023.53 1023.62 1023.69 1023.74 1023.79 1023.85 1023.91 1023.96 1024.00 1024.01 1023.99 1023.95 1023.90 1023.84 1023.78 1023.73
1020.77 1020.62 1020.51 1020.48 1020.52 1020.63 1020.78 1020.96 1021.13 1021.26 1021.33 1021.32 1021.26 1021.16 1021.06 1020.98 1020.97 1021.06 1021.25 1021.54 1021.91 1022.32 1022.74 1023.13 1023.46 1023.72 1023.89 1024.00 1024.05 1024.07 1024.08 1024.09 1024.11 1024.14 1024.17 1024.21 1024.23 1024.24 1024.24 1024.23 1024.21 1024.19 1024.17
1021.31 1021.15 1021.01 1020.94 1020.94 1021.03 1021.18 1021.37 1021.56 1021.71 1021.79 1021.80 1021.73 1021.60 1021.46 1021.35 1021.30 1021.36 1021.53 1021.82 1022.19 1022.61 1023.05 1023.45 1023.78 1024.03 1024.18 1024.26 1024.28 1024.26 1024.23 1024.21 1024.20 1024.21 1024.24 1024.28 1024.33 1024.38 1024.42 1024.47 1024.51 1024.54 1024.55
1021.76 1021.60 1021.45 1021.35 1021.33 1021.39 1021.52 1021.71 1021.91 1022.07 1022.17 1022.18 1022.10 1021.96 1021.80 1021.65 1021.57 1021.60 1021.75 1022.01 1022.37 1022.78 1023.20 1023.58 1023.90 1024.13 1024.26 1024.31 1024.30 1024.26 1024.20 1024.16 1024.13 1024.14 1024.17 1024.23 1024.31 1024.40 1024.50 1024.60 1024.70 1024.80 1024.86
1022.09 1021.95 1021.81 1021.69 1021.64 1021.68 1021.80 1021.98 1022.17 1022.35 1022.45 1022.47 1022.40 1022.26 1022.08 1021.92 1021.81 1021.81 1021.92 1022.15 1022.46 1022.83 1023.21 1023.56 1023.84 1024.04 1024.15 1024.18 1024.16 1024.10 1024.04 1023.99 1023.97 1023.98 1024.02 1024.09 1024.20 1024.33 1024.47 1024.64 1024.80 1024.96 1025.09
1022.29 1022.19 1022.06 1021.94 1021.88 1021.90 1022.00 1022.16 1022.36 1022.53 1022.65 1022.69 1022.63 1022.51 1022.34 1022.17 1022.05 1022.02 1022.09 1022.26 1022.52 1022.83 1023.15 1023.44 1023.68 1023.84 1023.92 1023.94 1023.92 1023.87 1023.82 1023.78 1023.76 1023.78 1023.83 1023.91 1024.03 1024.18 1024.37 1024.58 1024.80 1025.03 1025.22
1022.39 1022.33 1022.22 1022.11 1022.04 1022.05 1022.13 1022.28 1022.46 1022.64 1022.78 1022.84 1022.82 1022.72 1022.58 1022.43 1022.31 1022.25 1022.29 1022.41 1022.60 1022.83 1023.07 1023.30 1023.48 1023.60 1023.67 1023.69 1023.67 1023.64 1023.61 1023.59 1023.58 1023.61 1023.65 1023.73 1023.85 1024.01 1024.21 1024.45 1024.72 1025.00 1025.25
1022.46 1022.42 1022.33 1022.23 1022.16 1022.15 1022.21 1022.34 1022.51 1022.69 1022.84 1022.93 1022.96 1022.91 1022.81 1022.69 1022.59 1022.53 1022.53 1022.60 1022.72 1022.88 1023.04 1023.20 1023.33 1023.42 1023.47 1023.49 1023.50 1023.49 1023.48 1023.48 1023.48 1023.50 1023.54 1023.60 1023.70 1023.85 1024.04 1024.28 1024.57 1024.89 1025.19
Thickness
5763 5764 5761 5761 5762 5762 5762 5763 5763 5763 5764 5764 5764 5764 5764 5764 5764 5765 5765 5765 5765 5766 5766 5767 5767 5768 5768 5769 5769 5770 5770 5770 5771 5771 5771 5772 5772 5773 5773 5773 5774 5775 5773
5763 5762 5759 5759 5760 5760 5760 5760 5761 5761 5761 5761 5761 5761 5761 5761 5762 5762 5762 5762 5762 5762 5763 5763 5764 5765 5765 5766 5766 5767 5767 5768 5768 5768 5769 5770 5769 5769 5770 5770 5771 5772 5770
5762 5760 5759 5757 5757 5757 5758 5758 5758 5758 5758 5758 5758 5758 5758 5758 5758 5759 5759 5759 5759 5759 5760 5760 5761 5761 5762 5762 5763 5764 5764 5764 5765 5766 5767 5770 5768 5766 5767 5767 5767 5767 5767
5759 5758 5757 5754 5754 5754 5754 5754 5755 5755 5754 5755 5755 5755 5755 5755 5755 5755 5756 5756 5756 5756 5756 5756 5757 5758 5758 5758 5759 5760 5760 5761 5762 5764 5767 5767 5766 5763 5763 5763 5764 5764 5764
5757 5755 5753 5751 5751 5751 5751 5751 5751 5751 5752 5752 5752 5752 5752 5751 5751 5752 5752 5752 5752 5752 5753 5753 5753 5753 5754 5754 5755 5756 5756 5757 5759 5762 5763 5762 5761 5759 5759 5760 5760 5761 5761
5754 5753 5750 5748 5748 5748 5747 5748 5748 5748 5748 5748 5749 5749 5748 5748 5748 5748 5748 5749 5749 5748 5749 5749 5749 5750 5750 5750 5751 5752 5753 5754 5757 5758 5758 5758 5757 5755 5755 5756 5756 5756 5757
5752 5750 5748 5745 5745 5745 5745 5744 5745 5745 5745 5745 5745 5745 5745 5745 5745 5744 5745 5745 5745 5744 5745 5745 5745 5745 5746 5747 5747 5748 5749 5751 5754 5753 5753 5753 5752 5751 5751 5752 5752 5752 5753
5750 5748 5747 5743 5742 5742 5741 5741 5742 5742 5742 5742 5742 5742 5742 5741 5741 5741 5740 5740 5741 5741 5741 5741 5741 5741 5741 5742 5743 5744 5745 5747 5749 5750 5749 5748 5746 5746 5747 5747 5748 5748 5748
5747 5746 5745 5744 5743 5740 5739 5738 5738 5738 5738 5738 5738 5738 5738 5738 5737 5737 5737 5736 5736 5736 5736 5736 5737 5737 5737 5738 5739 5739 5741 5742 5746 5746 5746 5743 5742 5742 5742 5743 5743 5744 5744
5745 5744 5743 5742 5742 5741 5739 5736 5735 5735 5735 5735 5734 5734 5734 5735 5734 5734 5734 5732 5732 5732 5732 5732 5733 5733 5733 5734 5734 5735 5737 5739 5741 5741 5740 5738 5737 5737 5738 5738 5739 5739 5739
5741 5742 5741 5740 5739 5738 5737 5734 5733 5732 5732 5732 5732 5731 5732 5734 5733 5732 5729 5728 5728 5728 5728 5728 5728 5728 5729 5729 5730 5731 5734 5736 5736 5736 5734 5732 5732 5733 5733 5733 5734 5734 5734
5737 5739 5739 5738 5737 5736 5734 5732 5732 5732 5730 5731 5730 5730 5731 5730 5729 5728 5724 5724 5724 5724 5724 5723 5724 5725 5727 5727 5727 5728 5731 5732 5732 5731 5728 5727 5727 5728 5728 5728 5729 5729 5729
5737 5735 5736 5736 5734 5733 5731 5730 5729 5728 5727 5727 5727 5727 5727 5727 5726 5725 5724 5723 5722 5722 5722 5721 5722 5723 5724 5723 5724 5725 5725 5726 5726 5726 5723 5722 5722 5723 5723 5723 5723 5724 5724
5734 5733 5733 5733 5732 5730 5728 5727 5726 5725 5724 5723 5723 5723 5723 5723 5723 5722 5721 5720 5719 5719 5718 5719 5719 5719 5720 5721 5721 5721 5721 5721 5721 5720 5717 5716 5717 5718 5718 5718 5719 5719 5720
5730 5730 5730 5729 5729 5727 5724 5722 5722 5721 5721 5720 5718 5719 5719 5719 5719 5718 5717 5715 5715 5715 5715 5715 5716 5715 5715 5715 5715 5715 5715 5715 5716 5714 5712 5711 5712 5713 5713 5714 5714 5715 5715
5728 5728 5727 5726 5724 5723 5722 5721 5719 5718 5716 5716 5715 5716 5716 5715 5715 5714 5713 5711 5711 5711 5711 5711 5711 5709 5709 5709 5709 5709 5709 5710 5710 5709 5708 5707 5706 5707 5708 5708 5709 5710 5710
5727 5726 5724 5723 5721 5720 5718 5717 5716 5714 5714 5713 5711 5712 5711 5711 5711 5710 5710 5708 5707 5706 5707 5706 5706 5705 5704 5704 5703 5703 5703 5703 5704 5704 5703 5703 5703 5702 5702 5703 5703 5704 5704
5725 5723 5722 5720 5718 5716 5715 5713 5712 5711 5710 5709 5708 5708 5708 5708 5707 5706 5705 5704 5703 5703 5702 5701 5701 5700 5699 5699 5698 5698 5697 5697 5698 5698 5699 5700 5699 5699 5698 5697 5697 5698 5699
5723 5722 5720 5718 5716 5714 5712 5710 5709 5708 5707 5706 5705 5704 5704 5704 5703 5702 5701 5700 5699 5699 5699 5698 5696 5696 5694 5693 5693 5692 5692 5692 5693 5694 5695 5695 5695 5695 5694 5692 5692 5692 5693
5722 5720 5718 5715 5714 5712 5710 5709 5706 5705 5704 5703 5702 5701 5700 5700 5700 5699 5697 5697 5696 5695 5693 5693 5691 5690 5689 5689 5689 5687 5687 5688 5688 5689 5690 5690 5691 5691 5690 5689 5689 5688 5687
5719 5718 5716 5714 5712 5710 5708 5706 5703 5701 5701 5700 5699 5698 5697 5698 5697 5696 5695 5694 5692 5691 5690 5690 5689 5687 5685 5686 5684 5682 5683 5684 5684 5684 5685 5686 5686 5686 5686 5685 5685 5684 5684
5717 5716 5715 5713 5710 5708 5706 5705 5703 5700 5699 5698 5696 5696 5695 5695 5695 5694 5693 5691 5689 5687 5687 5686 5684 5684 5683 5683 5683 5680 5677 5678 5678 5681 5681 5682 5683 5682 5681 5681 5681 5680 5680
5716 5714 5713 5711 5709 5707 5705 5703 5701 5699 5697 5696 5694 5694 5693 5693 5692 5691 5691 5690 5688 5687 5685 5683 5682 5681 5680 5680 5681 5679 5675 5673 5674 5676 5677 5678 5677 5677 5676 5676 5676 5676 5675
5715 5714 5713 5711 5709 5707 5705 5702 5700 5697 5695 5695 5694 5693 5692 5691 5690 5689 5689 5688 5687 5686 5684 5683 5681 5681 5679 5678 5678 5678 5679 5677 5672 5671 5673 5674 5674 5673 5672 5672 5671 5671 5671
5715 5713 5712 5710 5708 5705 5703 5701 5699 5698 5696 5695 5694 5692 5692 5690 5689 5688 5687 5686 5685 5684 5683 5681 5680 5679 5679 5677 5676 5676 5674 5673 5674 5671 5668 5668 5669 5669 5669 5669 5668 5666 5666
5714 5711 5709 5707 5705 5703 5701 5700 5699 5696 5694 5693 5691 5690 5690 5689 5688 5687 5685 5685 5684 5683 5682 5680 5679 5677 5677 5675 5674 5674 5672 5671 5670 5669 5667 5666 5666 5666 5666 5665 5663 5662 5661